Birmingham International Airport (BHM)

 

Airport Diagram
Current Weather/Forecast (VFR Conditions)
METAR KBHM 050053Z 36006KT 10SM SCT050 BKN250 27/20 A2998 RMK AO2 SLP144 T02670200
TAF KBHM 042320Z 0500/0524 30005KT P6SM FEW060 FM050200 00000KT P6SM SCT250 FM051700 31006KT P6SM FEW050

All Charts
General
Chart Name Download
AIRPORT DIAGRAM
TAKEOFF MINIMUMS
ALTERNATE MINIMUMS
LAHSO

Departures
Chart Name Download
BIRMINGHAM SEVEN
BIRMINGHAM SEVEN, CONT.1

Approaches
Chart Name Download
ILS OR LOC RWY 06
ILS OR LOC RWY 24
ILS RWY 06 (CAT II)
ILS RWY 24 (SA CAT II)
RNAV (RNP) Z RWY 06
RNAV (RNP) Z RWY 24
RNAV (GPS) RWY 18
RNAV (GPS) RWY 36
RNAV (GPS) Y RWY 06
RNAV (GPS) Y RWY 24
LOC RWY 18


Inbound Traffic (Arrivals)

No inbound traffic.


Outbound Traffic (Departures)

No outbound traffic.